Kelso, MO

8:25 AM CST on February 13, 2016 (GMT -0600)
Cape Girardeau Regional

Weather History for KCGI - April, 2014

Change the Weather History Date:

Thursday, April 24, 2014

  Actual Average Record
Temperature  
Mean Temperature 66 °F 60 °F  
Max Temperature 80 °F 72 °F 85 °F (1965)
Min Temperature 51 °F 49 °F 32 °F (1963)
Degree Days  
Heating Degree Days 0 6  
Month to date heating degree days 197 232  
Since 1 July heating degree days 4840 4288  
Cooling Degree Days 1 1  
Month to date cooling degree days 8 18  
Year to date cooling degree days 8 22  
Growing Degree Days 15 (Base 50)    
Moisture  
Dew Point 50 °F    
Average Humidity 62    
Maximum Humidity 93    
Minimum Humidity 31    
Precipitation  
Precipitation 0.52 in 0.16 in 3.60 in (2011)
Month to date precipitation 4.33 3.38  
Year to date precipitation 9.78 14.66  
Sea Level Pressure  
Sea Level Pressure 29.78 in    
Wind  
Wind Speed 13 mph (South)    
Max Wind Speed 23 mph    
Max Gust Speed 32 mph    
Visibility 9 miles    
Events Rain , Thunderstorm    
T = Trace of Precipitation, MM = Missing Value Source: NWS Daily Summary

Daily Weather History Graph

Daily Weather History Graph

Search for Another Location

Airport or City:

Trip Planner

Search our weather history database for the weather conditions in past years. The results will help you decide how hot, cold, wet, or windy it might be!

Date:

Astronomy

Apr. 24, 2014 Rise Set
Actual Time 6:11 AM CDT 7:41 PM CDT
Civil Twilight 5:44 AM CDT 8:08 PM CDT
Nautical Twilight 5:11 AM CDT 8:42 PM CDT
Astronomical Twilight 4:36 AM CDT 9:16 PM CDT
Moon 3:16 AM CDT (4/24) 3:03 PM CDT (4/24)
Length of Visible Light 14h 24m
Length of Day
13h 29m
Waning Crescent, 24% of the Moon is Illuminated
Apr 24
Waning Crescent
Apr 29
New
May 6
First Quarter
May 14
Full
May 21
Last Quarter

Hourly Weather History & Observations

Time (CDT) Temp. Dew Point Humidity Pressure Visibility Wind Dir Wind Speed Gust Speed Precip Events Conditions
12:53 AM 51.1 °F 37.9 °F 61% 29.97 in 10.0 mi East 4.6 mph - N/A   Clear
1:53 AM 51.1 °F 37.9 °F 61% 29.93 in 10.0 mi ESE 6.9 mph - N/A   Clear
2:53 AM 52.0 °F 37.9 °F 59% 29.93 in 10.0 mi ESE 8.1 mph - N/A   Clear
3:53 AM 53.1 °F 37.9 °F 57% 29.92 in 10.0 mi SE 10.4 mph - N/A   Clear
4:53 AM 53.1 °F 37.0 °F 55% 29.91 in 10.0 mi SE 11.5 mph - N/A   Clear
5:53 AM 52.0 °F 37.0 °F 57% 29.92 in 10.0 mi SE 9.2 mph - N/A   Clear
6:53 AM 53.1 °F 37.9 °F 57% 29.92 in 10.0 mi SE 11.5 mph - N/A   Clear
7:53 AM 55.9 °F 37.9 °F 51% 29.92 in 10.0 mi SSE 16.1 mph - N/A   Clear
8:53 AM 61.0 °F 39.9 °F 46% 29.90 in 10.0 mi SSE 15.0 mph - N/A   Clear
9:53 AM 66.0 °F 42.1 °F 42% 29.87 in 10.0 mi SSE 12.7 mph - N/A   Clear
10:53 AM 71.1 °F 43.0 °F 36% 29.86 in 10.0 mi South 13.8 mph 21.9 mph N/A   Clear
11:53 AM 75.0 °F 43.0 °F 32% 29.85 in 10.0 mi South 18.4 mph - N/A   Scattered Clouds
12:53 PM 75.0 °F 46.9 °F 37% 29.85 in 10.0 mi SSW 15.0 mph 24.2 mph N/A   Scattered Clouds
1:53 PM 75.9 °F 46.9 °F 36% 29.81 in 10.0 mi SSW 13.8 mph 28.8 mph N/A   Partly Cloudy
2:53 PM 79.0 °F 51.1 °F 38% 29.74 in 10.0 mi SSW 16.1 mph 24.2 mph N/A   Partly Cloudy
3:53 PM 78.1 °F 53.1 °F 42% 29.69 in 10.0 mi South 18.4 mph 25.3 mph N/A   Clear
4:53 PM 78.1 °F 52.0 °F 40% 29.66 in 10.0 mi South 20.7 mph 29.9 mph N/A   Clear
5:53 PM 75.9 °F 51.1 °F 42% 29.66 in 10.0 mi South 19.6 mph 28.8 mph N/A   Clear
6:53 PM 73.0 °F 53.1 °F 49% 29.65 in 9.0 mi SSW 10.4 mph 26.5 mph N/A   Mostly Cloudy
7:53 PM 68.0 °F 57.9 °F 70% 29.67 in 7.0 mi WSW 10.4 mph - 0.01 in Rain Light Rain
8:28 PM 64.9 °F 61.0 °F 87% 29.72 in 3.0 mi WSW 16.1 mph - 0.14 in Rain , Thunderstorm Rain
8:38 PM 64.0 °F 62.1 °F 93% 29.73 in 2.5 mi SW 11.5 mph - 0.21 in Rain , Thunderstorm Heavy Thunderstorms and Rain
8:53 PM 64.0 °F 62.1 °F 93% 29.68 in 3.0 mi ESE 19.6 mph - 0.27 in Rain Light Rain
9:12 PM 64.9 °F 61.0 °F 87% 29.67 in 8.0 mi South 13.8 mph - 0.01 in Rain Light Rain
9:19 PM 64.0 °F 60.1 °F 87% 29.66 in 9.0 mi SSE 12.7 mph - 0.01 in   Overcast
9:43 PM 64.0 °F 60.1 °F 87% 29.66 in 10.0 mi SSE 13.8 mph - 0.01 in   Mostly Cloudy
9:53 PM 64.0 °F 60.1 °F 87% 29.67 in 9.0 mi South 17.3 mph - 0.01 in   Mostly Cloudy
10:11 PM 63.0 °F 60.1 °F 90% 29.67 in 9.0 mi South 11.5 mph - N/A   Scattered Clouds
10:53 PM 63.0 °F 60.1 °F 90% 29.68 in 10.0 mi WSW 16.1 mph - N/A Thunderstorm Mostly Cloudy
11:09 PM 61.0 °F 55.9 °F 83% 29.72 in 10.0 mi WNW 12.7 mph - 0.01 in Rain , Thunderstorm Light Rain
11:32 PM 59.0 °F 55.9 °F 90% 29.71 in 5.0 mi WNW 8.1 mph - 0.13 in Rain , Thunderstorm Thunderstorms and Rain
11:53 PM 59.0 °F 55.9 °F 90% 29.68 in 10.0 mi Calm Calm - 0.16 in Rain , Thunderstorm Light Thunderstorms and Rain